Location: Goettingen
(51.5300°N, 9.9433°E)
Time: 19:46:49
(UTC+02:00)

ISS - Pass Details

Date: 25 May 2018
Orbit: 402 x 407 km, 51.6° (Epoch: 25 May)

Event Time Altitude Azimuth Distance (km) Brightness Sun altitude
Rises 02:03:57 0° 283° (WNW) 2,321 0.1 -16.8°
Reaches altitude 10° 02:06:05 10° 277° (W) 1,459 -1.1 -16.8°
Enters shadow 02:08:18 33° 247° (WSW) 699 -3.0 -16.7°
